Regional Weather Roundup
Issued by NWS Cleveland, OH

Home | Current Version | Previous Version | Text Only | Print | Product List | Glossary Off
Versions: 1 2 3 4 5 6 7 8 9 10 11 12 13 14 15 16 17 18 19 20 21 22 23 24 25 26 27 28 29 30 31 32 33 34 35 36 37 38 39 40 41 42 43 44 45 46 47 48 49 50

000
ASUS41 KCLE 220910
RWRCLE
OHIO REGIONAL WEATHER ROUNDUP
NATIONAL WEATHER SERVICE CLEVELAND, OH
500 AM EDT MON SEP 22 2014

NOTE: "FAIR" INDICATES FEW OR NO CLOUDS BELOW 12,000 FEET WITH NO
SIGNIFICANT WEATHER AND/OR OBSTRUCTIONS TO VISIBILITY.

OHZ001>008-015>018-024>027-034-035-043-044-221000-
   NORTHWEST OHIO

CITY           SKY/WX    TMP DP  RH WIND       PRES   REMARKS
DEFIANCE       CLOUDY   N/A N/A N/A N9        30.12R
FINDLAY        CLOUDY    49  41  74 N9        30.08R
TOLEDO EXPRESS CLOUDY    47  38  71 NW5       30.10R
TOLEDO EXEC    CLOUDY    48  38  68 NW7       30.10R
LIMA           CLOUDY    49  41  74 N14       30.09R
$$

OHZ009>014-019>023-028>033-038-089-221000-
   NORTHEAST OHIO

CITY           SKY/WX    TMP DP  RH WIND       PRES   REMARKS
CLE-HOPKINS    CLOUDY    52  43  71 NW14      30.04R
CLE-LAKEFRONT  CLOUDY    55  44  66 NW20      30.00R
CUY CO. ARPT   NOT AVBL
LORAIN-ELYRIA  CLOUDY    55  43  63 N9        30.04R
ASHTABULA      LGT RAIN  51  48  89 NW8       29.98R FOG
AKRON-CANTON   CLOUDY    52  44  74 NW10G20   30.01R
WOOSTER        CLOUDY    51  47  86 NW8       30.03R
MANSFIELD      CLOUDY    49  46  90 NW9       30.04R
YOUNGSTOWN     CLOUDY    51  47  86 NW12      29.97R
$$

OHZ042-051>053-060>062-070>072-077>081-221000-
  SOUTHWEST OHIO

CITY           SKY/WX    TMP DP  RH WIND       PRES   REMARKS
CINC-COVINGTON PTCLDY    52  45  77 N13       30.10R
CINC-LUNKEN    CLEAR     52  42  69 N14       30.11R
HAMILTON       CLEAR     48  43  82 NW7       30.11R
DAYTON         MOCLDY    48  42  80 NW8       30.11R
WRIGHT-PAT AFB CLOUDY    51  45  82 NW7       30.09R
DAYTON GENERAL CLEAR     49  44  83 NW9       30.09R
WILMINGTON     MOCLDY    50  45  83 N9        30.08R
$$

OHZ036-037-039>041-045>050-054>059-063>069-073>076-082>088-221000-
  CENTRAL AND SOUTHEAST OHIO

CITY           SKY/WX    TMP DP  RH WIND       PRES   REMARKS
COLUMBUS       MOCLDY    56  47  71 VRB5      30.04R
OSU AIRPORT    CLOUDY    53  48  83 NW14      30.05R
BOLTON FIELD   CLOUDY    53  49  86 NW6       30.06R
RICKENBACK AFB CLOUDY    53  48  82 NW5       30.05R
NEWARK         MOCLDY    51  47  86 CALM      30.04R
MARION         CLOUDY    50  43  77 N9        30.06R
LANCASTER      PTCLDY    51  47  86 NW5       30.05R
ZANESVILLE     CLOUDY    52  48  86 NW7       30.03R
NEW PHILLY     LGT RAIN  53  50  89 NW7       30.02R
$$


USA.gov is the U.S. government's official web portal to all federal, state and local government web resources and services.